TimeCST,TemperatureF,Dew PointF,Humidity,Sea Level PressureIn,VisibilityMPH,Wind Direction,Wind SpeedMPH,Gust SpeedMPH,PrecipitationIn,Events,Conditions,WindDirDegrees,DateUTC
12:53 AM,33.1,30.9,92,29.60,1.2,NE,4.6,-,0.01,Rain,Light Freezing Rain,50,2013-01-29 06:53:00
1:38 AM,33.8,30.2,87,29.56,1.2,NNE,4.6,-,0.00,,Overcast,20,2013-01-29 07:38:00
1:53 AM,33.1,30.9,92,29.58,1.2,NNE,4.6,-,0.00,,Overcast,20,2013-01-29 07:53:00
2:33 AM,33.8,32.0,93,29.54,2.0,NNE,4.6,-,N/A,,Overcast,20,2013-01-29 08:33:00
2:50 AM,33.8,30.2,87,29.55,1.8,NNW,4.6,-,N/A,,Overcast,330,2013-01-29 08:50:00
2:53 AM,33.1,30.9,92,29.58,1.8,NNW,5.8,-,N/A,,Overcast,330,2013-01-29 08:53:00
3:53 AM,33.1,30.9,92,29.56,1.5,NNW,5.8,-,N/A,,Overcast,340,2013-01-29 09:53:00
4:16 AM,33.8,32.0,93,29.54,2.0,North,4.6,-,N/A,,Overcast,350,2013-01-29 10:16:00
4:53 AM,33.1,30.9,92,29.56,2.5,NNW,8.1,-,N/A,,Overcast,330,2013-01-29 10:53:00
5:11 AM,33.8,30.2,87,29.54,3.0,NW,8.1,-,N/A,,Overcast,320,2013-01-29 11:11:00
5:53 AM,33.1,30.9,92,29.56,5.0,NW,4.6,-,N/A,,Overcast,320,2013-01-29 11:53:00
6:53 AM,33.1,30.0,89,29.57,7.0,WNW,3.5,-,N/A,,Overcast,300,2013-01-29 12:53:00
7:03 AM,33.8,30.2,87,29.55,7.0,Calm,Calm,-,N/A,,Overcast,0,2013-01-29 13:03:00
7:53 AM,33.1,30.0,89,29.60,6.0,West,5.8,-,N/A,,Overcast,280,2013-01-29 13:53:00
8:53 AM,33.1,30.0,89,29.61,6.0,WNW,8.1,-,N/A,,Overcast,290,2013-01-29 14:53:00
9:53 AM,34.0,30.0,85,29.61,6.0,NW,8.1,-,N/A,,Overcast,320,2013-01-29 15:53:00
10:07 AM,33.8,30.2,87,29.59,7.0,NNW,9.2,-,N/A,,Overcast,330,2013-01-29 16:07:00
10:21 AM,33.8,30.2,87,29.60,8.0,NNW,11.5,-,N/A,,Overcast,330,2013-01-29 16:21:00
10:53 AM,34.0,30.0,85,29.64,10.0,NNW,11.5,-,N/A,,Overcast,340,2013-01-29 16:53:00
11:53 AM,35.1,28.9,78,29.67,10.0,NNW,12.7,-,N/A,,Overcast,330,2013-01-29 17:53:00
12:53 PM,35.1,30.0,82,29.65,10.0,NNW,10.4,-,N/A,,Overcast,340,2013-01-29 18:53:00
1:53 PM,36.0,28.9,76,29.62,10.0,NNW,13.8,-,N/A,,Overcast,330,2013-01-29 19:53:00
2:53 PM,35.1,27.0,72,29.64,10.0,NNW,12.7,-,N/A,,Mostly Cloudy,340,2013-01-29 20:53:00
3:53 PM,35.1,28.0,76,29.68,10.0,NNW,9.2,-,N/A,,Overcast,340,2013-01-29 21:53:00
4:53 PM,34.0,26.1,73,29.67,10.0,North,12.7,-,N/A,,Overcast,350,2013-01-29 22:53:00
5:53 PM,33.1,26.1,75,29.70,10.0,NNW,6.9,-,N/A,,Overcast,330,2013-01-29 23:53:00
6:53 PM,32.0,25.0,75,29.72,10.0,North,10.4,-,N/A,,Overcast,350,2013-01-30 00:53:00
7:53 PM,30.0,21.9,72,29.72,10.0,North,15.0,20.7,N/A,,Mostly Cloudy,350,2013-01-30 01:53:00
8:53 PM,30.0,21.9,72,29.71,10.0,North,15.0,20.7,N/A,,Overcast,350,2013-01-30 02:53:00
9:53 PM,30.0,21.9,72,29.75,10.0,NNW,10.4,18.4,N/A,,Overcast,340,2013-01-30 03:53:00
10:53 PM,28.9,21.0,72,29.73,10.0,North,15.0,21.9,N/A,,Overcast,360,2013-01-30 04:53:00
11:53 PM,28.9,19.9,69,29.75,10.0,North,12.7,18.4,N/A,,Overcast,360,2013-01-30 05:53:00